Flag for Japan Weather past 2 weeks in Fukushima, Japan

Now
50 °F

Cool.


Feels Like: 50 °F
Forecast: 44 / 78 °F
Wind: 1 mph from Northwest

Location: Wakamatsu

Current Time: Sep 21, 2014 at 5:37:01 AM

Latest Report: Sep 21, 2014 at 5:00 AM


Visibility: 9 mi

Pressure: 30.09 "Hg

Humidity: 96%

Dew point: 49 °F

Location of FukushimaLocation

Historic Weather in Fukushima — Graph

°F

Fukushima temperature yesterday

Maximum temperature yesterday: 73 °F (at 2:00 PM)
Minimum temperature yesterday: 55 °F (at 5:00 AM)
Average temperature yesterday: 63 °F

Past Weeks' High & Low Weather Summary

 TemperatureHumidityPressure
High84 °F (Sep 6, 2:00 PM)98% (Sep 13, 5:00 AM)30.07 "Hg (Sep 13, 5:00 AM)
Low51 °F (Sep 21, 4:00 AM)38% (Sep 18, 3:00 PM)29.64 "Hg (Sep 9, 3:00 PM)
Average66 °F77%29.88 "Hg
* Reported Sep 6 4:00 AM — Sep 21 4:00 AM, Fukushima, Weather by CustomWeather, © 2014

Note: Actual official high and low records may vary slightly from our data, if they occured in-between our weather recording intervals... More about our weather records

Advertising

Fukushima weather history for previous 24 hours

 ConditionsComfort  
Time TempWeatherWind HumidityBarometerVisibility
4:00 AM
Sep 21
51 °FCool.1 mph96%30.07 "Hg7 mi
3:00 AM51 °FCool.2 mph94%30.05 "Hg10 mi
2:00 AM52 °FCool.1 mph94%30.04 "Hg11 mi
10:00 PM
Sep 20
56 °FCool.No wind88%30.02 "Hg12 mi
9:00 PM57 °FCool.1 mph87%30.01 "Hg12 mi
8:00 PM60 °FCool.2 mph82%30.00 "Hg12 mi
7:00 PM61 °FCool.3 mph78%29.97 "Hg12 mi
6:00 PM67 °FMild.2 mph60%29.93 "Hg12 mi
5:00 PM71 °FMild.6 mph51%29.91 "Hg12 mi
4:00 PM72 °FMild.5 mph41%29.90 "Hg12 mi
3:00 PM72 °FMild.3 mph44%29.90 "Hg12 mi
2:00 PM73 °FMild.3 mph45%29.91 "Hg12 mi
1:00 PM71 °FMild.5 mph46%29.93 "Hg12 mi
12:00 PM71 °FMild.5 mph45%29.95 "Hg12 mi
11:00 AM68 °FMild.3 mph50%29.97 "Hg12 mi
10:00 AM66 °FMild.2 mph68%29.99 "Hg12 mi
9:00 AM64 °FMild.2 mph74%30.01 "Hg12 mi
8:00 AM59 °FCool.1 mph85%30.00 "Hg12 mi
7:00 AM57 °FCool.1 mph90%30.00 "Hg12 mi
5:00 AM55 °FCool.2 mph93%29.97 "Hg12 mi
Weather by CustomWeather, © 2014

See weather overviewHow to use our weather pages